Flag for Australia Weather past 2 weeks in Lord Howe Island, Lord Howe Island, Australia

Now
67 °F

Overcast.


Feels Like: 67 °F
Forecast: 62 / 65 °F
Wind: 6 mph from Northwest

Location: Lord Howe Island

Current Time: Jul 26, 2014 at 3:49:23 PM

Latest Report: Jul 26, 2014 at 3:00 PM


Visibility: 13 mi

Pressure: 30.27 "Hg

Humidity: 65%

Dew point: 55 °F

Location of Lord Howe IslandLocation

Historic Weather in Lord Howe Island — Graph

°F

Lord Howe Island temperature yesterday

Maximum temperature yesterday: 68 °F (at 3:00 PM)
Minimum temperature yesterday: 57 °F (at 6:00 AM)
Average temperature yesterday: 63 °F

Past Weeks' High & Low Weather Summary

 TemperatureHumidityPressure
High69 °F (Jul 26, 12:00 PM)95% (Jul 17, 6:00 AM)30.39 "Hg (Jul 17, 6:00 AM)
Low51 °F (Jul 23, 10:30 PM)42% (Jul 13, 10:30 PM)29.61 "Hg (Jul 18, 3:00 PM)
Average61 °F66%30.07 "Hg
* Reported Jul 11 1:30 PM — Jul 26 1:30 PM, Lord Howe Island, Weather by CustomWeather, © 2014

Note: Actual official high and low records may vary slightly from our data, if they occured in-between our weather recording intervals... More about our weather records

Advertising

Lord Howe Island weather history for previous 24 hours

 ConditionsComfort  
Time TempWeatherWind HumidityBarometerVisibility
1:30 PM
Jul 26
68 °FMild.8 mph66%30.29 "HgN/A
12:00 PM69 °FMild.8 mph63%30.33 "HgN/A
10:30 AM69 °FMild.12 mph66%30.37 "HgN/A
9:00 AM67 °FPartly sunny.5 mph72%30.38 "Hg12 mi
7:30 AM64 °FMild.1 mph78%30.37 "HgN/A
6:00 AM64 °FPassing clouds.5 mph75%30.36 "Hg12 mi
4:30 AM63 °FMild.3 mph73%30.34 "HgN/A
3:00 AM62 °FOvercast.1 mph85%30.36 "HgN/A
1:30 AM62 °FCool.No wind77%30.37 "HgN/A
12:00 AM62 °FMild.1 mph79%30.38 "HgN/A
10:30 PM
Jul 25
64 °FMild.5 mph74%30.39 "HgN/A
9:00 PM63 °FMild.2 mph76%30.37 "HgN/A
7:30 PM63 °FMild.5 mph75%30.36 "HgN/A
6:00 PM63 °FPassing clouds.3 mph74%30.34 "HgN/A
4:30 PM66 °FMild.6 mph65%30.32 "HgN/A
3:00 PM68 °FPassing clouds.6 mph61%30.31 "Hg19 mi
Weather by CustomWeather, © 2014

See weather overviewHow to use our weather pages